Weather History for Mineral Point, WI

Change the Weather History Date:

Tuesday, August 19, 2014

  Actual Average (KLNR) Record (KLNR)
Temperature  
Mean Temperature 72 °F -  
Max Temperature 80 °F 78 °F 91 °F (2003)
Min Temperature 64 °F 57 °F 44 °F (2004)
Cooling Degree Days 7    
Growing Degree Days 22 (Base 50)    
Moisture  
Dew Point 63 °F    
Average Humidity 72    
Maximum Humidity 94    
Minimum Humidity 48    
Precipitation  
Precipitation 0.12 in - - ()
Sea Level Pressure  
Sea Level Pressure 29.74 in    
Wind  
Wind Speed 7 mph (West)    
Max Wind Speed 14 mph    
Max Gust Speed 30 mph    
Visibility 10 miles    
Events Rain    
Averages and records for this station are not official NWS values.
T = Trace of Precipitation, MM = Missing Value Source: NWS Daily Summary

Daily Weather History Graph

Daily Weather History Graph

Search for Another Location

Airport:

Trip Planner

Search our weather history database for the weather conditions in past years. The results will help you decide how hot, cold, wet, or windy it might be!

Date:

Astronomy

Aug. 19, 2014 Rise Set
Actual Time 6:11 AM CDT 7:56 PM CDT
Civil Twilight 5:41 AM CDT 8:26 PM CDT
Nautical Twilight 5:04 AM CDT 9:03 PM CDT
Astronomical Twilight 4:24 AM CDT 9:42 PM CDT
Moon 1:01 AM CDT 3:56 PM CDT
Length of Visible Light 14h 45m
Length of Day
13h 45m
Waning Crescent, 29% of the Moon is Illuminated
Aug 19
Waning Crescent
Aug 25
New
Sep 2
First Quarter
Sep 8
Full
Sep 15
Last Quarter

Hourly Weather History & Observations

Time (CDT) Temp. Heat Index Dew Point Humidity Pressure Visibility Wind Dir Wind Speed Gust Speed Precip Events Conditions
12:15 AM 71.6 °F - 68.0 °F 88% 29.74 in 7.0 mi South 8.1 mph - N/A   Mostly Cloudy
12:35 AM 71.6 °F - 68.0 °F 88% 29.74 in 10.0 mi South 9.2 mph - N/A   Mostly Cloudy
12:55 AM 71.6 °F - 68.0 °F 88% 29.73 in 7.0 mi SSW 9.2 mph - N/A Rain Light Rain
1:15 AM 69.8 °F - 62.6 °F 78% 29.75 in 5.0 mi WSW 13.8 mph 29.9 mph 0.02 in Rain Heavy Rain
1:35 AM 68.0 °F - 62.6 °F 83% 29.73 in 10.0 mi SW 6.9 mph - 0.04 in Rain Rain
1:55 AM 68.0 °F - 62.6 °F 83% 29.72 in 10.0 mi SW 11.5 mph 16.1 mph 0.05 in Rain Light Rain
2:15 AM 68.0 °F - 62.6 °F 83% 29.71 in 10.0 mi SW 9.2 mph - 0.02 in Rain Light Rain
2:35 AM 68.0 °F - 62.6 °F 83% 29.71 in 10.0 mi SW 11.5 mph 18.4 mph 0.04 in Rain Light Rain
2:55 AM 68.0 °F - 62.6 °F 83% 29.69 in 10.0 mi West 5.8 mph - 0.05 in   Scattered Clouds
3:15 AM 68.0 °F - 62.6 °F 83% 29.69 in 10.0 mi WNW 5.8 mph - 0.01 in   Scattered Clouds
3:35 AM 66.2 °F - 62.6 °F 88% 29.70 in 10.0 mi WSW 4.6 mph - 0.01 in   Mostly Cloudy
3:55 AM 66.2 °F - 62.6 °F 88% 29.69 in 10.0 mi WSW 3.5 mph - 0.02 in   Scattered Clouds
4:15 AM 64.4 °F - 62.6 °F 94% 29.70 in 10.0 mi SW 4.6 mph - N/A   Mostly Cloudy
4:35 AM 66.2 °F - 62.6 °F 88% 29.70 in 10.0 mi SW 5.8 mph - N/A   Scattered Clouds
4:55 AM 66.2 °F - 62.6 °F 88% 29.70 in 10.0 mi WSW 3.5 mph - N/A   Scattered Clouds
5:15 AM 64.4 °F - 62.6 °F 94% 29.69 in 10.0 mi SW 4.6 mph - N/A   Scattered Clouds
5:35 AM 66.2 °F - 62.6 °F 88% 29.70 in 10.0 mi SSW 4.6 mph - N/A   Mostly Cloudy
5:55 AM 66.2 °F - 62.6 °F 88% 29.70 in 10.0 mi SSW 4.6 mph - N/A   Overcast
6:15 AM 66.2 °F - 62.6 °F 88% 29.70 in 10.0 mi SSW 4.6 mph - N/A   Scattered Clouds
6:35 AM 68.0 °F - 64.4 °F 88% 29.71 in 10.0 mi SSW 5.8 mph - N/A   Mostly Cloudy
6:55 AM 68.0 °F - 64.4 °F 88% 29.71 in 10.0 mi SW 5.8 mph - N/A   Mostly Cloudy
7:15 AM 68.0 °F - 64.4 °F 88% 29.71 in 10.0 mi WSW 5.8 mph - N/A   Scattered Clouds
7:35 AM 69.8 °F - 64.4 °F 83% 29.71 in 10.0 mi WSW 5.8 mph - N/A   Clear
7:55 AM 69.8 °F - 64.4 °F 83% 29.72 in 10.0 mi WSW 5.8 mph - N/A   Clear
8:15 AM 71.6 °F - 66.2 °F 83% 29.72 in 10.0 mi WSW 5.8 mph - N/A   Clear
8:35 AM 71.6 °F - 66.2 °F 83% 29.73 in 10.0 mi West 8.1 mph - N/A   Clear
8:55 AM 71.6 °F - 66.2 °F 83% 29.73 in 10.0 mi West 6.9 mph - N/A   Clear
9:15 AM 73.4 °F - 66.2 °F 78% 29.74 in 10.0 mi West 6.9 mph - N/A   Scattered Clouds
9:35 AM 73.4 °F - 66.2 °F 78% 29.73 in 10.0 mi West 6.9 mph - N/A   Scattered Clouds
9:55 AM 75.2 °F - 66.2 °F 73% 29.74 in 10.0 mi West 9.2 mph - N/A   Scattered Clouds
10:15 AM 77.0 °F - 64.4 °F 65% 29.73 in 10.0 mi WNW 8.1 mph - N/A   Scattered Clouds
10:35 AM 77.0 °F - 64.4 °F 65% 29.74 in 10.0 mi WNW 4.6 mph - N/A   Scattered Clouds
10:55 AM 77.0 °F - 66.2 °F 69% 29.75 in 10.0 mi West 6.9 mph - N/A   Mostly Cloudy
11:15 AM 78.8 °F - 64.4 °F 61% 29.75 in 10.0 mi WNW 9.2 mph - N/A   Mostly Cloudy
11:35 AM 78.8 °F - 64.4 °F 61% 29.75 in 10.0 mi West 11.5 mph 16.1 mph N/A   Mostly Cloudy
11:55 AM 78.8 °F - 62.6 °F 57% 29.75 in 10.0 mi West 8.1 mph - N/A   Mostly Cloudy
12:15 PM 78.8 °F - 62.6 °F 57% 29.75 in 10.0 mi West 10.4 mph - N/A   Mostly Cloudy
12:35 PM 78.8 °F - 64.4 °F 61% 29.75 in 10.0 mi WNW 5.8 mph - N/A   Mostly Cloudy
12:55 PM 80.6 °F 82.3 °F 64.4 °F 58% 29.75 in 10.0 mi NW 8.1 mph - N/A   Mostly Cloudy
1:15 PM 78.8 °F - 62.6 °F 57% 29.75 in 10.0 mi West 8.1 mph - N/A   Scattered Clouds
1:35 PM 80.6 °F 81.8 °F 62.6 °F 54% 29.75 in 10.0 mi WNW 10.4 mph - N/A   Scattered Clouds
1:55 PM 80.6 °F 81.8 °F 62.6 °F 54% 29.74 in 10.0 mi WNW 9.2 mph - N/A   Scattered Clouds
2:15 PM 80.6 °F 81.8 °F 62.6 °F 54% 29.74 in 10.0 mi West 12.7 mph 18.4 mph N/A   Scattered Clouds
2:35 PM 80.6 °F 81.8 °F 62.6 °F 54% 29.75 in 10.0 mi WNW 12.7 mph 18.4 mph N/A   Scattered Clouds
2:55 PM 80.6 °F 81.5 °F 60.8 °F 51% 29.75 in 10.0 mi NW 11.5 mph 18.4 mph N/A   Clear
3:15 PM 80.6 °F 81.5 °F 60.8 °F 51% 29.75 in 10.0 mi WNW 11.5 mph 18.4 mph N/A   Scattered Clouds
3:35 PM 80.6 °F 81.5 °F 60.8 °F 51% 29.75 in 10.0 mi West 12.7 mph 18.4 mph N/A   Scattered Clouds
4:15 PM 78.8 °F - 60.8 °F 54% 29.74 in 10.0 mi West 8.1 mph - N/A   Scattered Clouds
4:35 PM 78.8 °F - 60.8 °F 54% 29.74 in 10.0 mi West 13.8 mph 17.3 mph N/A   Mostly Cloudy
4:55 PM 80.6 °F 81.5 °F 60.8 °F 51% 29.75 in 10.0 mi WNW 10.4 mph 16.1 mph N/A   Mostly Cloudy
5:15 PM 80.6 °F 81.1 °F 59.0 °F 48% 29.75 in 10.0 mi West 10.4 mph 17.3 mph N/A   Scattered Clouds
5:35 PM 78.8 °F - 59.0 °F 51% 29.75 in 10.0 mi WNW 9.2 mph 16.1 mph N/A   Scattered Clouds
5:55 PM 78.8 °F - 60.8 °F 54% 29.76 in 10.0 mi WNW 6.9 mph - N/A   Scattered Clouds
6:15 PM 78.8 °F - 60.8 °F 54% 29.76 in 10.0 mi West 6.9 mph - N/A   Clear
6:35 PM 78.8 °F - 60.8 °F 54% 29.76 in 10.0 mi WNW 5.8 mph - N/A   Scattered Clouds
6:55 PM 78.8 °F - 60.8 °F 54% 29.76 in 10.0 mi West 6.9 mph - N/A   Scattered Clouds
7:15 PM 77.0 °F - 60.8 °F 57% 29.76 in 10.0 mi WNW 3.5 mph - N/A   Mostly Cloudy
7:35 PM 77.0 °F - 60.8 °F 57% 29.76 in 10.0 mi WNW 3.5 mph - N/A   Overcast
7:55 PM 73.4 °F - 62.6 °F 69% 29.77 in 10.0 mi Calm Calm - N/A   Scattered Clouds
8:15 PM 73.4 °F - 62.6 °F 69% 29.77 in 10.0 mi Calm Calm - N/A   Mostly Cloudy
8:35 PM 71.6 °F - 62.6 °F 73% 29.78 in 10.0 mi Calm Calm - N/A   Mostly Cloudy
8:55 PM 71.6 °F - 62.6 °F 73% 29.78 in 10.0 mi West 3.5 mph - N/A   Mostly Cloudy
9:15 PM 71.6 °F - 62.6 °F 73% 29.79 in 10.0 mi West 3.5 mph - N/A   Scattered Clouds
9:35 PM 71.6 °F - 62.6 °F 73% 29.80 in 10.0 mi Calm Calm - N/A   Clear
9:55 PM 69.8 °F - 62.6 °F 78% 29.80 in 10.0 mi Calm Calm - N/A   Clear
10:15 PM 69.8 °F - 62.6 °F 78% 29.80 in 10.0 mi Calm Calm - N/A   Clear
10:35 PM 69.8 °F - 62.6 °F 78% 29.80 in 10.0 mi Calm Calm - N/A   Clear
10:55 PM 69.8 °F - 62.6 °F 78% 29.80 in 10.0 mi Calm Calm - N/A   Clear
11:15 PM 68.0 °F - 62.6 °F 83% 29.81 in 10.0 mi Calm Calm - N/A   Clear
11:35 PM 66.2 °F - 62.6 °F 88% 29.81 in 10.0 mi WSW 3.5 mph - N/A   Clear
11:55 PM 66.2 °F - 62.6 °F 88% 29.82 in 10.0 mi WSW 4.6 mph - N/A   Clear